Location: Unspecified
(0.0000°N, 0.0000°E)
Time: 10:34:10
(UTC+00:00)

BEESAT - Pass Details

Date: 12 December 2017
Orbit: 701 x 709 km, 98.5° (Epoch: 22 June)

Event Time Altitude Azimuth Distance (km) Brightness Sun altitude
Rises 03:42:35 0° 187° (S) 3,095 ? -29.9°
Reaches altitude 10° 03:45:05 10° 198° (SSW) 2,173 ? -29.3°
Enters shadow 03:45:22 11° 199° (SSW) 2,076 ? -29.2°
